QPF
0.00 0.00 0.00 0.00 0.00 0.00 0.00 0.00 0.00 0.00 0.00 0.00 0.00 0.00 0.00 0.00 0.00 0.00 0.00 0.00 0.00 0.00 0.00 0.00 0.00 0.00 0.00 0.00 0.00 0.00 0.00 0.00 0.00 0.00 0.00 0.00 0.00 0.00 0.00 0.00 0.00 0.00 0.00 0.00 0.00
0.00 0.00 0.00 0.00 0.00 0.00 0.00 0.00 0.00 0.00 0.00 0.00 0.00 0.00 0.00 0.00 0.00 0.00 0.00 0.00 0.00 0.00 0.00 0.00 0.00 0.00 0.00 0.00 0.00 0.00 0.00 0.00 0.00 0.00 0.00 0.00 0.00 0.00 0.00 0.00 0.00 0.00 0.00 0.00 0.00
0.00 0.00 0.00 0.00 0.00 0.00 0.00 0.00 0.00 0.00 0.00 0.00 0.00 0.00 0.00 0.00 0.00 0.00 0.00 0.00 0.00 0.00 0.00 0.00 0.00 0.00 0.00 0.00 0.00 0.00 0.00 0.00 0.00 0.00 0.00 0.00 0.00 0.00 0.00 0.00 0.00 0.00 0.00 0.00 0.00
0.00 0.00 0.00 0.00 0.00 0.00 0.00 0.00 0.00 0.00 0.00 0.00 0.00 0.00 0.00 0.00 0.00 0.00 0.00 0.00 0.00 0.00 0.00 0.00 0.00 0.00 0.00 0.00 0.00 0.00 0.00 0.00 0.00 0.00 0.00 0.00 0.00 0.00 0.00 0.00 0.00 0.00 0.00 0.00 0.00
0.00 0.00 0.00 0.00 0.00 0.00 0.00 0.00 0.00 0.00 0.00 0.00 0.00 0.00 0.00 0.00 0.00 0.00 0.00 0.00 0.00 0.00 0.00 0.00 0.00 0.00 0.00 0.00 0.00 0.00 0.00 0.00 0.00 0.00 0.00 0.00 0.00 0.00 0.00 0.00 0.00 0.00 0.00 0.00 0.00
0.00 0.00 0.00 0.00 0.00 0.00 0.00 0.00 0.00 0.00 0.00 0.00 0.00 0.00 0.00 0.00 0.00 0.00 0.00 0.00 0.00 0.00 0.00 0.00 0.00 0.00 0.00 0.00 0.00 0.00 0.00 0.00 0.00 0.00 0.00 0.00 0.00 0.00 0.00 0.00 0.00 0.00 0.00 0.00 0.00
0.00 0.00 0.00 0.00 0.00 0.00 0.00 0.00 0.00 0.00 0.00 0.00 0.00 0.00 0.00 0.00 0.00 0.00 0.00 0.00 0.00 0.00 0.00 0.00 0.00 0.00 0.00 0.00 0.00 0.00 0.00 0.00 0.00 0.00 0.00 0.00 0.00 0.00 0.00 0.00 0.00 0.00 0.00 0.00 0.00
0.00 0.00 0.00 0.00 0.00 0.00 0.00 0.00 0.00 0.00 0.00 0.00 0.00 0.00 0.00 0.00 0.00 0.00 0.00 0.00 0.00 0.00 0.00 0.00 0.00 0.00 0.00 0.00 0.00 0.00 0.00 0.00 0.00 0.00 0.00 0.00 0.00 0.00 0.00 0.00 0.00 0.00 0.00 0.00 0.00
0.00 0.00 0.00 0.00 0.00 0.00 0.00 0.00 0.00 0.00 0.00 0.00 0.00 0.00 0.00 0.00 0.00 0.00 0.00 0.00 0.00 0.00 0.00 0.00 0.00 0.00 0.00 0.00 0.00 0.00 0.00 0.00 0.00 0.00 0.00 0.00 0.00 0.00 0.00 0.00 0.00 0.00 0.00 0.00 0.00
0.00 0.00 0.00 0.00 0.00 0.00 0.00 0.00 0.00 0.00 0.00 0.00 0.00 0.00 0.00 0.00 0.00 0.00 0.00 0.00 0.00 0.00 0.00 0.00 0.00 0.00 0.00 0.00 0.00 0.00 0.00 0.00 0.00 0.00 0.00 0.00 0.00 0.00 0.00 0.00 0.00 0.00 0.00 0.00 0.00
0.00 0.00 0.00 0.00 0.00 0.00 0.00 0.00 0.00 0.00 0.00 0.00 0.00 0.00 0.00 0.00 0.00 0.00 0.00 0.00 0.00 0.00 0.00 0.00 0.00 0.00 0.00 0.00 0.00 0.00 0.00 0.00 0.00 0.00 0.00 0.00 0.00 0.00 0.00 0.00 0.00 0.00 0.00 0.00 0.00
0.00 0.00 0.00 0.00 0.00 0.00 0.00 0.00 0.00 0.00 0.00 0.00 0.00 0.00 0.00 0.00 0.00 0.00 0.00 0.00 0.00 0.00 0.00 0.00 0.00 0.00 0.00 0.00 0.00 0.00 0.00 0.00 0.00 0.00 0.00 0.00 0.00 0.00 0.00 0.00 0.00 0.00 0.00 0.00 0.00
0.00 0.00 0.00 0.00 0.00 0.00 0.00 0.00 0.00 0.00 0.00 0.00 0.00 0.00 0.00 0.00 0.00 0.00 0.00 0.00 0.00 0.00 0.00 0.00 0.00 0.00 0.00 0.00 0.00 0.00 0.00 0.00 0.00 0.00 0.00 0.00 0.00 0.00 0.00 0.00 0.00 0.00 0.00 0.00 0.00
0.00 0.00 0.00 0.00 0.00 0.00 0.00 0.00 0.00 0.00 0.00 0.00 0.00 0.00 0.00 0.00 0.00 0.00 0.00 0.00 0.00 0.00 0.00 0.00 0.00 0.00 0.00 0.00 0.00 0.00 0.00 0.00 0.00 0.00 0.00 0.00 0.00 0.00 0.00 0.00 0.00 0.00 0.00 0.00 0.00
0.00 0.00 0.00 0.00 0.00 0.00 0.00 0.00 0.00 0.00 0.00 0.00 0.00 0.00 0.00 0.00 0.00 0.00 0.00 0.00 0.00 0.00 0.00 0.00 0.00 0.00 0.00 0.00 0.00 0.00 0.00 0.00 0.00 0.00 0.00 0.00 0.00 0.00 0.00 0.00 0.00 0.00 0.00 0.00 0.00
0.00 0.00 0.00 0.00 0.00 0.00 0.00 0.00 0.00 0.00 0.00 0.00 0.00 0.00 0.00 0.00 0.00 0.00 0.00 0.00 0.00 0.00 0.00 0.00 0.00 0.00 0.00 0.00 0.00 0.00 0.00 0.00 0.00 0.00 0.00 0.00 0.00 0.00 0.00 0.00 0.00 0.00 0.00 0.00 0.00
0.00 0.00 0.00 0.00 0.00 0.00 0.00 0.00 0.00 0.00 0.00 0.00 0.00 0.00 0.00 0.00 0.00 0.00 0.00 0.00 0.00 0.00 0.00 0.00 0.00 0.00 0.00 0.00 0.00 0.00 0.00 0.00 0.00 0.00 0.00 0.00 0.00 0.00 0.00 0.00 0.00 0.00 0.00 0.00 0.00
0.00 0.00 0.00 0.00 0.00 0.00 0.00 0.00 0.00 0.00 0.00 0.00 0.00 0.00 0.00 0.00 0.00 0.00 0.00 0.00 0.00 0.00 0.00 0.00 0.00 0.00 0.00 0.00 0.00 0.00 0.00 0.00 0.00 0.00 0.00 0.00 0.00 0.00 0.00 0.00 0.00 0.00 0.00 0.00 0.00
0.00 0.00 0.00 0.00 0.00 0.00 0.00 0.00 0.00 0.00 0.00 0.00 0.00 0.00 0.00 0.00 0.00 0.00 0.00 0.00 0.00 0.00 0.00 0.00 0.00 0.00 0.00 0.00 0.00 0.00 0.00 0.00 0.00 0.00 0.00 0.00 0.00 0.00 0.00 0.00 0.00 0.00 0.00 0.00 0.00
0.00 0.00 0.00 0.00 0.00 0.00 0.00 0.00 0.00 0.00 0.00 0.00 0.00 0.00 0.00 0.00 0.00 0.00 0.00 0.00 0.00 0.00 0.00 0.00 0.00 0.00 0.00 0.00 0.00 0.00 0.00 0.00 0.00 0.00 0.00 0.00 0.00 0.00 0.00 0.00 0.00 0.00 0.00 0.00 0.00
0.00 0.00 0.00 0.00 0.00 0.00 0.00 0.00 0.00 0.00 0.00 0.00 0.00 0.00 0.00 0.00 0.00 0.00 0.00 0.00 0.00 0.00 0.00 0.00 0.00 0.00 0.00 0.00 0.00 0.00 0.00 0.00 0.00 0.00 0.00 0.00 0.00 0.00 0.00 0.00 0.00 0.00 0.00 0.00 0.00
0.00 0.00 0.00 0.00 0.00 0.00 0.00 0.00 0.00 0.00 0.00 0.00 0.00 0.00 0.00 0.00 0.00 0.00 0.00 0.00 0.00 0.00 0.00 0.00 0.00 0.00 0.00 0.00 0.00 0.00 0.00 0.00 0.00 0.00 0.00 0.00 0.00 0.00 0.00 0.00 0.00 0.00 0.00 0.00 0.00
0.00 0.00 0.00 0.00 0.00 0.00 0.00 0.00 0.00 0.00 0.00 0.00 0.00 0.00 0.00 0.00 0.00 0.00 0.00 0.00 0.00 0.00 0.00 0.00 0.00 0.00 0.00 0.00 0.00 0.00 0.00 0.00 0.00 0.00 0.00 0.00 0.00 0.00 0.00 0.00 0.00 0.00 0.00 0.00 0.00
0.00 0.00 0.00 0.00 0.00 0.00 0.00 0.00 0.00 0.00 0.00 0.00 0.00 0.00 0.00 0.00 0.00 0.00 0.00 0.00 0.00 0.00 0.00 0.00 0.00 0.00 0.00 0.00 0.00 0.00 0.00 0.00 0.00 0.00 0.00 0.00 0.00 0.00 0.00 0.00 0.00 0.00 0.00 0.00 0.00
0.00 0.00 0.00 0.00 0.00 0.00 0.00 0.00 0.00 0.00 0.00 0.00 0.00 0.00 0.00 0.00 0.00 0.00 0.00 0.00 0.00 0.00 0.00 0.00 0.00 0.00 0.00 0.00 0.00 0.00 0.00 0.00 0.00 0.00 0.00 0.00 0.00 0.00 0.00 0.00 0.00 0.00 0.00 0.00 0.00
0.00 0.00 0.00 0.00 0.00 0.00 0.00 0.00 0.00 0.00 0.00 0.00 0.00 0.00 0.00 0.00 0.00 0.00 0.00 0.00 0.00 0.00 0.00 0.00 0.00 0.00 0.00 0.00 0.00 0.00 0.00 0.00 0.00 0.00 0.00 0.00 0.00 0.00 0.00 0.00 0.00 0.00 0.00 0.00 0.00
0.00 0.00 0.00 0.00 0.00 0.00 0.00 0.00 0.00 0.00 0.00 0.00 0.00 0.00 0.00 0.00 0.00 0.00 0.00 0.00 0.00 0.00 0.00 0.00 0.00 0.00 0.00 0.00 0.00 0.00 0.00 0.00 0.00 0.00 0.00 0.00 0.00 0.00 0.00 0.00 0.00 0.00 0.00 0.00 0.00
MSLP
1015.25 1015.18 1015.18 1015.17 1015.15 1015.05 1015.03 1015.05 1015.16 1015.30 1015.38 1015.47 1015.51 1015.46 1015.40 1015.39 1015.31 1015.10 1015.08 1014.95 1014.68 1014.32 1014.17 1014.09 1014.06 1014.20 1014.36 1015.13 1015.55 1016.18 1017.50 1018.40 1018.16 1018.24 1019.18 1019.53 1020.18 1021.19 1022.75 1023.09 1023.45 1024.75 1025.60 1025.68 1024.78
1015.39 1015.36 1015.35 1015.34 1015.23 1015.15 1015.15 1015.20 1015.26 1015.40 1015.54 1015.61 1015.63 1015.62 1015.65 1015.62 1015.44 1015.13 1014.97 1014.65 1014.55 1014.42 1014.41 1014.51 1014.59 1014.52 1015.11 1015.60 1016.03 1016.59 1017.82 1017.87 1017.84 1018.22 1020.53 1021.20 1021.57 1022.35 1023.65 1024.41 1025.26 1025.87 1025.90 1025.67 1024.94
1015.55 1015.41 1015.35 1015.34 1015.24 1015.19 1015.22 1015.28 1015.43 1015.66 1015.74 1015.79 1015.80 1015.75 1015.68 1015.56 1015.47 1015.41 1014.84 1014.69 1014.60 1014.59 1014.70 1014.80 1014.77 1014.88 1015.57 1015.89 1016.51 1016.87 1017.54 1017.82 1018.30 1018.72 1019.84 1021.69 1022.86 1023.61 1024.33 1026.27 1027.61 1027.58 1027.14 1026.29 1025.38
1015.63 1015.60 1015.48 1015.31 1015.13 1015.19 1015.30 1015.39 1015.58 1015.77 1015.81 1015.88 1015.91 1015.88 1015.74 1015.56 1016.03 1015.28 1014.88 1014.74 1014.63 1014.64 1014.65 1014.78 1014.96 1015.45 1016.10 1016.47 1016.70 1017.23 1017.70 1018.30 1019.12 1019.62 1020.61 1022.92 1024.89 1025.54 1026.75 1028.30 1028.33 1028.03 1027.65 1026.98 1026.22
1015.78 1015.68 1015.37 1015.22 1015.22 1015.30 1015.46 1015.53 1015.60 1015.76 1015.92 1016.05 1016.12 1015.97 1015.90 1015.84 1015.89 1015.10 1014.93 1014.79 1014.69 1014.78 1015.03 1015.15 1015.51 1015.90 1016.49 1016.84 1017.07 1017.53 1018.36 1019.56 1020.73 1020.87 1022.59 1023.56 1025.35 1026.59 1028.32 1028.78 1028.65 1028.39 1027.79 1027.58 1027.39
1015.85 1015.68 1015.46 1015.32 1015.25 1015.34 1015.52 1015.58 1015.67 1015.92 1016.14 1016.15 1016.12 1016.14 1015.91 1015.74 1015.42 1015.27 1015.08 1014.96 1014.99 1015.05 1015.36 1015.48 1015.91 1016.12 1016.75 1017.15 1017.56 1018.31 1019.05 1020.53 1021.41 1022.02 1023.28 1024.32 1026.52 1026.97 1029.37 1029.40 1029.08 1028.77 1028.68 1028.50 1028.21
1015.90 1015.66 1015.59 1015.46 1015.36 1015.43 1015.58 1015.72 1015.98 1016.19 1016.27 1016.22 1016.19 1016.07 1015.92 1016.08 1015.48 1015.32 1015.15 1015.18 1015.18 1015.18 1015.48 1015.66 1015.82 1016.11 1016.77 1017.38 1017.96 1018.65 1019.54 1020.77 1021.92 1022.43 1023.90 1023.82 1027.31 1029.40 1030.15 1030.18 1030.13 1030.23 1030.08 1029.79 1029.51
1016.06 1015.83 1015.74 1015.73 1015.63 1015.82 1015.91 1016.06 1016.27 1016.33 1016.36 1016.24 1016.20 1016.10 1016.05 1015.41 1015.32 1015.33 1015.30 1015.30 1015.35 1015.46 1015.71 1015.90 1015.92 1016.62 1017.55 1018.13 1018.73 1019.54 1020.18 1021.66 1023.04 1023.12 1023.88 1024.32 1029.45 1030.44 1030.84 1030.86 1031.09 1031.20 1031.04 1030.66 1030.33
1016.20 1015.87 1015.93 1016.14 1016.14 1016.28 1016.28 1016.36 1016.44 1016.44 1016.34 1016.22 1016.26 1016.02 1016.26 1015.30 1015.42 1015.98 1015.82 1015.88 1015.85 1015.90 1016.16 1016.14 1016.67 1018.39 1018.69 1019.41 1020.27 1021.17 1021.83 1022.48 1023.43 1024.06 1024.47 1025.60 1030.26 1031.59 1032.07 1031.91 1032.18 1032.11 1031.76 1031.19 1030.62
1016.25 1016.04 1016.20 1016.31 1016.47 1016.45 1016.44 1016.40 1016.46 1016.32 1016.19 1016.06 1016.24 1016.63 1016.69 1017.06 1016.71 1016.70 1016.29 1016.18 1016.52 1016.59 1016.88 1017.75 1018.96 1020.17 1020.50 1020.71 1022.14 1022.38 1022.63 1023.24 1024.46 1026.24 1026.48 1028.58 1031.40 1032.48 1033.00 1032.91 1033.27 1033.07 1032.75 1032.30 1031.76
1016.35 1016.23 1016.36 1016.43 1016.57 1016.49 1016.23 1016.49 1017.13 1017.24 1017.37 1017.80 1017.90 1017.75 1017.54 1017.34 1016.99 1017.06 1017.04 1016.98 1017.32 1018.10 1019.34 1020.05 1020.76 1022.06 1022.40 1022.19 1022.01 1022.10 1022.89 1023.84 1025.12 1026.69 1028.23 1030.36 1031.87 1033.13 1033.61 1033.49 1033.60 1033.56 1033.30 1032.86 1032.39
1016.45 1016.34 1016.41 1016.46 1016.56 1016.55 1016.51 1017.38 1017.98 1018.07 1018.44 1018.22 1017.97 1017.84 1017.76 1017.75 1017.75 1017.79 1017.37 1018.25 1019.12 1020.15 1020.38 1021.21 1022.28 1022.86 1022.63 1022.45 1022.29 1022.34 1023.01 1024.34 1026.00 1026.97 1028.46 1031.09 1032.55 1033.50 1033.73 1033.95 1033.96 1033.93 1033.55 1033.31 1032.84
1016.56 1016.42 1016.43 1016.47 1016.60 1016.70 1017.29 1017.94 1017.90 1017.96 1018.33 1018.63 1018.42 1018.27 1018.33 1018.43 1019.46 1019.50 1019.31 1019.70 1020.43 1021.15 1021.73 1022.28 1023.08 1022.72 1022.71 1023.08 1023.04 1023.12 1023.38 1024.20 1025.38 1027.41 1028.88 1030.78 1033.09 1033.54 1033.83 1034.07 1034.08 1034.03 1034.02 1033.79 1033.33
1016.72 1016.42 1016.30 1016.23 1016.90 1017.52 1017.94 1017.89 1017.87 1017.87 1018.75 1019.57 1018.78 1018.60 1018.65 1018.94 1020.01 1020.34 1020.49 1020.76 1021.26 1022.23 1022.53 1023.09 1023.20 1023.12 1023.35 1023.61 1023.80 1023.51 1023.56 1024.23 1025.29 1027.01 1028.84 1029.87 1032.37 1033.40 1033.67 1033.74 1033.97 1034.09 1033.85 1033.67 1033.33
1016.78 1016.49 1016.33 1016.15 1017.11 1017.89 1018.27 1017.96 1017.83 1017.94 1019.46 1020.17 1019.33 1018.74 1019.41 1020.08 1021.25 1020.87 1021.20 1021.01 1022.35 1022.95 1023.08 1023.86 1023.64 1023.61 1023.77 1024.02 1023.96 1023.97 1024.00 1024.39 1025.09 1026.62 1027.91 1029.73 1031.10 1032.62 1033.70 1034.04 1034.07 1033.96 1033.82 1033.77 1033.47
1016.98 1016.59 1016.60 1016.88 1017.59 1018.30 1018.17 1017.97 1018.08 1018.96 1020.20 1020.48 1020.19 1020.24 1020.60 1021.56 1022.25 1022.34 1022.45 1022.38 1023.34 1023.67 1023.76 1024.26 1023.82 1023.87 1024.06 1024.04 1024.19 1023.97 1024.22 1024.81 1025.67 1026.61 1028.10 1029.25 1030.63 1032.77 1033.65 1034.22 1034.29 1034.16 1034.24 1034.10 1033.79
1017.18 1016.86 1016.87 1017.55 1018.32 1018.28 1018.27 1018.43 1019.45 1020.42 1021.28 1021.48 1021.40 1021.61 1022.22 1023.18 1023.69 1024.26 1025.01 1025.26 1026.05 1025.75 1025.95 1025.27 1024.58 1024.41 1024.44 1024.60 1024.57 1024.94 1025.26 1026.14 1027.03 1027.50 1028.29 1029.06 1030.61 1032.44 1033.22 1033.70 1033.90 1034.08 1034.16 1034.09 1034.18
1017.36 1017.10 1018.05 1018.32 1018.41 1018.34 1018.45 1019.37 1020.38 1021.65 1021.80 1021.84 1022.00 1022.44 1023.24 1024.09 1024.91 1025.54 1026.19 1027.35 1027.60 1027.54 1027.59 1027.08 1025.65 1025.47 1025.24 1025.57 1026.02 1026.59 1027.17 1028.17 1029.12 1029.37 1029.29 1029.63 1031.28 1032.37 1033.02 1033.32 1033.62 1033.98 1034.06 1034.10 1034.32
1017.55 1018.02 1018.52 1018.73 1018.51 1018.51 1019.13 1020.73 1021.93 1022.25 1022.34 1022.36 1022.57 1023.25 1024.15 1024.65 1025.27 1026.24 1027.48 1028.35 1028.60 1028.50 1028.54 1028.08 1026.94 1026.14 1025.97 1025.92 1026.25 1026.81 1027.94 1028.86 1029.69 1030.24 1031.14 1031.19 1032.31 1032.81 1033.30 1033.72 1033.94 1034.01 1034.25 1034.56 1034.60
1018.02 1018.58 1019.25 1018.88 1018.68 1018.97 1020.31 1022.35 1022.92 1022.91 1022.73 1022.82 1023.36 1024.02 1024.66 1025.34 1026.04 1026.85 1027.94 1028.88 1029.04 1028.86 1028.73 1028.75 1028.09 1027.18 1026.71 1026.60 1027.09 1027.61 1028.88 1029.70 1031.18 1032.45 1032.67 1031.80 1032.70 1033.08 1033.88 1034.09 1034.20 1034.24 1034.38 1034.53 1034.91
1018.32 1019.08 1019.26 1018.99 1018.94 1019.88 1022.18 1023.26 1023.42 1023.35 1023.08 1023.30 1023.81 1024.42 1025.17 1025.84 1026.55 1027.52 1028.60 1029.18 1029.23 1029.15 1028.96 1029.23 1029.37 1028.17 1027.71 1028.32 1028.68 1028.95 1029.83 1031.04 1032.26 1033.42 1034.10 1034.00 1033.16 1033.69 1034.10 1034.34 1034.59 1034.34 1034.35 1035.02 1035.13
1018.75 1019.66 1019.51 1019.23 1020.41 1022.35 1023.45 1023.54 1023.51 1023.67 1023.50 1023.65 1023.97 1024.58 1025.35 1026.19 1027.10 1028.01 1028.72 1029.16 1029.41 1029.42 1029.55 1029.79 1029.99 1029.59 1029.31 1029.46 1029.40 1029.83 1030.80 1031.76 1033.17 1034.06 1034.74 1035.36 1033.53 1033.40 1034.26 1034.55 1034.55 1034.56 1034.85 1035.30 1035.40
1019.39 1020.03 1019.76 1019.62 1021.68 1023.58 1024.08 1024.22 1024.21 1024.01 1024.21 1024.12 1024.63 1025.01 1025.60 1026.57 1027.66 1028.29 1028.88 1029.26 1029.46 1029.56 1029.91 1030.02 1030.44 1030.44 1030.19 1030.41 1030.09 1030.63 1031.38 1032.17 1033.36 1034.22 1034.68 1035.45 1033.85 1033.75 1034.27 1034.49 1034.52 1034.77 1035.08 1035.54 1035.65
1019.70 1020.53 1020.76 1021.30 1022.30 1022.74 1023.86 1024.45 1024.68 1024.48 1024.58 1024.65 1025.11 1025.30 1026.09 1027.05 1027.73 1028.68 1029.27 1029.59 1029.78 1029.97 1030.23 1030.44 1031.15 1031.42 1031.55 1031.11 1031.38 1031.59 1031.86 1032.59 1033.48 1034.68 1034.90 1034.70 1034.07 1033.93 1034.18 1034.56 1034.42 1034.92 1035.58 1035.86 1035.81
1020.08 1021.14 1021.37 1022.59 1022.91 1022.95 1023.32 1024.32 1024.87 1024.98 1025.05 1025.13 1025.74 1026.02 1026.59 1027.64 1028.41 1029.13 1029.63 1029.99 1030.14 1030.36 1030.80 1031.26 1031.98 1032.21 1031.88 1031.93 1032.09 1032.05 1032.34 1032.69 1033.74 1034.21 1034.88 1034.33 1034.61 1034.37 1034.36 1034.68 1034.74 1034.95 1035.36 1035.59 1035.92
1020.13 1020.84 1021.76 1022.63 1022.83 1023.12 1023.82 1024.57 1024.98 1025.73 1025.99 1026.07 1026.28 1026.94 1027.49 1028.03 1028.83 1029.56 1029.90 1030.40 1030.66 1031.12 1031.62 1032.25 1032.75 1033.03 1032.80 1032.73 1032.65 1032.57 1032.56 1033.02 1033.67 1034.12 1034.38 1034.51 1034.43 1034.21 1034.40 1034.65 1034.87 1035.06 1035.61 1036.07 1036.35
1020.16 1020.06 1020.38 1023.23 1023.42 1023.58 1024.25 1024.76 1025.23 1025.87 1027.04 1027.05 1027.14 1027.74 1028.70 1029.25 1029.45 1030.18 1030.43 1030.79 1031.04 1031.66 1032.49 1033.15 1033.74 1034.36 1033.94 1033.61 1033.30 1033.02 1032.55 1032.91 1033.39 1033.88 1034.04 1034.43 1034.38 1034.52 1034.64 1034.96 1035.06 1035.55 1036.27 1036.78 1036.89
Thickness
5721 5723 5725 5725 5726 5728 5728 5727 5726 5725 5724 5722 5722 5722 5721 5720 5720 5720 5711 5715 5717 5719 5719 5719 5717 5714 5713 5704 5702 5694 5660 5652 5667 5670 5667 5661 5665 5655 5643 5638 5635 5622 5612 5612 5618
5722 5724 5725 5726 5728 5729 5729 5728 5728 5726 5724 5723 5722 5722 5720 5719 5719 5713 5719 5720 5719 5720 5718 5712 5709 5711 5700 5700 5695 5681 5657 5672 5682 5679 5644 5645 5646 5643 5633 5626 5618 5613 5612 5612 5616
5722 5725 5727 5727 5729 5730 5730 5729 5727 5725 5724 5723 5722 5721 5720 5720 5713 5709 5719 5719 5719 5720 5718 5715 5714 5710 5697 5697 5688 5683 5668 5679 5677 5677 5665 5647 5635 5634 5630 5609 5596 5595 5598 5605 5610
5722 5724 5727 5729 5730 5731 5730 5729 5727 5725 5724 5723 5721 5720 5720 5720 5687 5714 5719 5719 5720 5720 5718 5713 5708 5698 5687 5686 5688 5677 5682 5679 5665 5665 5658 5636 5622 5613 5605 5588 5590 5590 5591 5594 5596
5722 5725 5728 5730 5731 5731 5730 5729 5728 5726 5724 5722 5720 5720 5720 5707 5702 5719 5719 5720 5720 5719 5710 5707 5698 5694 5683 5684 5684 5677 5675 5658 5650 5651 5638 5633 5617 5608 5591 5587 5588 5589 5590 5588 5585
5722 5724 5727 5729 5731 5731 5730 5729 5728 5725 5723 5722 5721 5720 5717 5696 5718 5719 5720 5719 5716 5714 5707 5704 5698 5696 5685 5682 5677 5673 5663 5651 5647 5644 5637 5627 5609 5608 5586 5585 5584 5585 5581 5577 5575
5721 5724 5727 5729 5730 5730 5730 5729 5726 5724 5723 5722 5722 5721 5712 5702 5719 5719 5719 5717 5717 5715 5706 5708 5706 5699 5692 5686 5681 5673 5660 5652 5645 5647 5631 5636 5604 5583 5580 5576 5572 5563 5561 5563 5560
5721 5724 5726 5727 5729 5728 5728 5727 5725 5724 5723 5723 5722 5721 5703 5721 5721 5720 5721 5718 5717 5715 5711 5709 5710 5697 5687 5683 5672 5662 5656 5641 5638 5641 5637 5634 5577 5578 5571 5567 5560 5554 5546 5548 5544
5721 5724 5725 5724 5726 5725 5727 5727 5726 5725 5725 5725 5723 5718 5700 5723 5715 5717 5719 5713 5714 5713 5709 5709 5702 5680 5675 5665 5652 5643 5637 5641 5641 5627 5630 5621 5572 5562 5557 5555 5547 5541 5538 5540 5537
5721 5724 5723 5723 5725 5726 5727 5727 5727 5726 5726 5725 5722 5706 5707 5699 5709 5711 5715 5715 5707 5706 5699 5689 5674 5659 5657 5650 5629 5638 5637 5635 5624 5610 5607 5585 5556 5550 5544 5540 5527 5523 5522 5518 5515
5720 5722 5722 5723 5723 5725 5729 5727 5716 5709 5710 5698 5699 5697 5702 5706 5711 5707 5709 5708 5702 5687 5668 5667 5656 5641 5645 5648 5652 5649 5639 5632 5620 5605 5589 5564 5550 5541 5534 5529 5523 5516 5511 5506 5501
5719 5722 5723 5724 5724 5725 5726 5715 5711 5712 5693 5702 5703 5703 5706 5705 5695 5700 5707 5693 5679 5666 5670 5656 5641 5644 5649 5648 5646 5647 5638 5624 5606 5603 5586 5557 5541 5534 5529 5522 5514 5505 5497 5492 5486
5720 5722 5724 5725 5724 5724 5718 5712 5715 5714 5692 5696 5699 5697 5697 5698 5681 5681 5689 5683 5670 5657 5651 5645 5647 5650 5650 5635 5634 5635 5633 5627 5623 5591 5574 5556 5529 5530 5526 5515 5505 5493 5482 5473 5467
5719 5723 5726 5727 5721 5716 5711 5714 5714 5715 5672 5675 5688 5692 5695 5694 5678 5682 5679 5678 5667 5656 5653 5645 5647 5645 5638 5634 5629 5633 5635 5628 5617 5598 5585 5568 5546 5520 5515 5505 5494 5478 5468 5460 5450
5720 5723 5726 5726 5718 5711 5712 5714 5714 5711 5651 5677 5682 5700 5689 5680 5672 5675 5675 5675 5656 5651 5654 5643 5640 5636 5633 5632 5631 5628 5624 5620 5614 5595 5589 5567 5552 5512 5503 5489 5480 5469 5458 5443 5431
5719 5723 5723 5722 5717 5712 5712 5713 5711 5674 5652 5670 5676 5672 5674 5667 5662 5663 5659 5663 5655 5648 5645 5638 5643 5639 5635 5633 5630 5627 5621 5614 5595 5586 5583 5569 5557 5498 5483 5479 5464 5454 5437 5424 5412
5717 5721 5721 5717 5711 5713 5713 5707 5673 5652 5671 5663 5664 5666 5658 5652 5652 5645 5636 5630 5621 5637 5616 5625 5635 5631 5629 5625 5623 5611 5600 5592 5593 5582 5585 5556 5541 5490 5483 5472 5459 5440 5425 5410 5392
5715 5718 5713 5712 5712 5713 5710 5688 5663 5661 5661 5667 5664 5661 5653 5647 5640 5634 5631 5618 5615 5613 5596 5608 5622 5621 5622 5618 5609 5598 5585 5573 5576 5567 5563 5541 5525 5488 5475 5465 5450 5430 5414 5396 5377
5712 5711 5709 5709 5711 5712 5697 5661 5659 5662 5664 5663 5660 5653 5645 5645 5641 5630 5614 5612 5610 5603 5610 5599 5615 5617 5616 5613 5608 5600 5575 5572 5560 5543 5520 5506 5490 5479 5469 5451 5432 5418 5400 5377 5366
5707 5704 5702 5708 5710 5706 5679 5658 5659 5661 5663 5662 5654 5647 5642 5634 5635 5626 5619 5608 5605 5603 5600 5600 5600 5608 5608 5608 5597 5589 5576 5560 5522 5535 5532 5512 5485 5470 5447 5431 5416 5401 5386 5369 5355
5703 5696 5701 5706 5707 5689 5665 5658 5660 5662 5663 5659 5649 5642 5636 5634 5627 5619 5610 5606 5602 5601 5597 5592 5584 5603 5599 5583 5579 5569 5558 5534 5514 5498 5499 5468 5484 5443 5437 5420 5400 5388 5376 5355 5345
5695 5687 5699 5703 5683 5654 5657 5663 5665 5661 5659 5656 5649 5644 5637 5629 5622 5615 5611 5604 5595 5596 5595 5583 5568 5576 5587 5575 5567 5562 5547 5525 5502 5500 5466 5440 5458 5453 5426 5405 5389 5376 5360 5343 5335
5687 5686 5695 5699 5672 5654 5658 5657 5655 5659 5651 5653 5645 5642 5635 5624 5619 5610 5604 5599 5592 5592 5587 5584 5571 5573 5582 5571 5566 5551 5539 5523 5489 5469 5461 5444 5454 5431 5409 5394 5381 5365 5348 5334 5326
5686 5681 5683 5678 5669 5667 5658 5655 5650 5653 5649 5646 5641 5640 5631 5622 5610 5603 5599 5596 5591 5589 5586 5577 5556 5567 5569 5569 5546 5538 5533 5518 5492 5461 5454 5439 5431 5425 5409 5391 5380 5360 5337 5328 5319
5678 5677 5678 5669 5669 5665 5664 5655 5649 5649 5647 5644 5638 5635 5629 5616 5611 5602 5594 5589 5588 5583 5572 5565 5564 5552 5552 5543 5535 5533 5523 5509 5482 5467 5449 5450 5420 5412 5395 5377 5362 5347 5334 5330 5312
5679 5676 5665 5661 5666 5666 5659 5656 5650 5639 5640 5640 5634 5625 5620 5615 5611 5598 5594 5585 5588 5575 5566 5548 5554 5544 5550 5533 5522 5523 5509 5495 5479 5464 5445 5430 5413 5407 5388 5365 5355 5339 5335 5319 5304
5672 5678 5681 5651 5659 5664 5656 5651 5650 5639 5627 5622 5626 5617 5608 5600 5593 5582 5574 5568 5575 5569 5554 5545 5536 5524 5523 5509 5516 5511 5496 5486 5476 5458 5443 5419 5412 5394 5379 5363 5350 5332 5321 5303 5292